Regional Weather Roundup
Issued by NWS Charleston, WV

Home | Current Version | Previous Version | Graphics & Text | Print | Product List | Glossary On
Versions: 1 2 3 4 5 6 7 8 9 10 11 12 13 14 15 16 17 18 19 20 21 22 23 24 25 26 27 28 29 30 31 32 33 34 35 36 37 38 39 40 41 42 43 44 45 46 47 48 49 50
000
ASUS41 KRLX 101210
RWRRLX
West Virginia Regional Weather Roundup
National Weather Service Charleston WV
700 AM EST WED FEB 10 2016

Note: "fair" indicates few or no clouds below 12,000 feet with no
significant weather and/or obstructions to visibility.

WVZ003-101300-
Northern Panhandle of West Virginia

CITY           SKY/WX    TMP DP  RH WIND       PRES   REMARKS
WHEELING       FLURRIES  19  13  77 W8        29.79R WCI   9
$$

WVZ009-101300-
Northwest West Virginia

CITY           SKY/WX    TMP DP  RH WIND       PRES   REMARKS
PARKERSBURG    CLOUDY    17   8  67 W10       29.93R WCI   5
$$

WVZ006-101300-
Western West Virginia

CITY           SKY/WX    TMP DP  RH WIND       PRES   REMARKS
HUNTINGTON     CLOUDY    18   7  62 W12G20    29.96R WCI   5
$$

WVZ015-101300-
West Central West Virginia

CITY           SKY/WX    TMP DP  RH WIND       PRES   REMARKS
CHARLESTON     FLURRIES  20   9  62 W10G20    29.92R WCI   9
$$

WVZ022-031-101300-
North Central West Virginia

CITY           SKY/WX    TMP DP  RH WIND       PRES   REMARKS
CLARKSBURG     CLOUDY    20  15  81 W12       29.83R WCI   8
MORGANTOWN     CLOUDY    21  12  68 W7G18     29.80R
$$

WVZ025-035-042-045-101300-
Southern West Virginia

CITY           SKY/WX    TMP DP  RH WIND       PRES   REMARKS
BECKLEY        LGT SNOW  15  10  80 W13       29.79R WCI   1
LOGAN          FLURRIES  16   7  67 W10G21    29.89R WCI   3
BLUEFIELD      LGT SNOW  13   9  84 W13G20    29.78R FOG     WCI  -2
LEWISBURG      FLURRIES  20  14  76 W8        29.77S
$$

WVZ047-101300-
Northern Mountains of West Virginia

CITY           SKY/WX    TMP DP  RH WIND       PRES   REMARKS
ELKINS         FLURRIES  18  12  77 VRB7      29.78R WCI   9
$$

WVZ052-101300-
Eastern Panhandle of West Virginia

CITY           SKY/WX    TMP DP  RH WIND       PRES   REMARKS
MARTINSBURG    CLOUDY    28  14  55 W18G24    29.74R
PETERSBURG     CLOUDY    26  13  58 CALM      29.78R
$$



USA.gov is the U.S. government's official web portal to all federal, state and local government web resources and services.